TimeEDT,TemperatureF,Dew PointF,Humidity,Sea Level PressureIn,VisibilityMPH,Wind Direction,Wind SpeedMPH,Gust SpeedMPH,PrecipitationIn,Events,Conditions,WindDirDegrees,DateUTC
12:15 AM,59.0,53.6,82,29.94,10.0,NNE,4.6,-,N/A,,Clear,20,2013-07-24 04:15:00
12:34 AM,57.2,51.8,82,29.94,10.0,North,6.9,-,N/A,,Clear,10,2013-07-24 04:34:00
12:55 AM,57.2,51.8,82,29.95,10.0,NE,11.5,19.6,N/A,,Scattered Clouds,40,2013-07-24 04:55:00
1:14 AM,57.2,50.0,77,29.96,10.0,NNE,8.1,17.3,N/A,,Scattered Clouds,20,2013-07-24 05:14:00
1:34 AM,55.4,50.0,82,29.96,10.0,NE,6.9,-,N/A,,Clear,40,2013-07-24 05:34:00
1:55 AM,55.4,50.0,82,29.96,10.0,NE,3.5,-,N/A,,Scattered Clouds,40,2013-07-24 05:55:00
2:14 AM,55.4,50.0,82,29.95,10.0,North,5.8,-,N/A,,Mostly Cloudy,10,2013-07-24 06:14:00
2:34 AM,55.4,50.0,82,29.95,10.0,North,5.8,-,N/A,,Scattered Clouds,10,2013-07-24 06:34:00
2:55 AM,55.4,48.2,77,29.95,10.0,NNE,3.5,-,N/A,,Scattered Clouds,20,2013-07-24 06:55:00
3:15 AM,55.4,48.2,77,29.95,10.0,Calm,Calm,-,N/A,,Scattered Clouds,0,2013-07-24 07:15:00
3:35 AM,55.4,48.2,77,29.95,10.0,North,6.9,-,N/A,,Scattered Clouds,10,2013-07-24 07:35:00
3:54 AM,55.4,48.2,77,29.95,10.0,North,5.8,-,N/A,,Clear,10,2013-07-24 07:54:00
4:15 AM,53.6,48.2,82,29.95,10.0,North,4.6,-,N/A,,Clear,10,2013-07-24 08:15:00
4:34 AM,53.6,48.2,82,29.95,10.0,North,3.5,-,N/A,,Clear,10,2013-07-24 08:34:00
4:54 AM,53.6,48.2,82,29.96,10.0,Calm,Calm,-,N/A,,Clear,0,2013-07-24 08:54:00
5:15 AM,53.6,48.2,82,29.96,10.0,Calm,Calm,-,N/A,,Clear,0,2013-07-24 09:15:00
5:34 AM,51.8,48.2,88,29.97,10.0,Calm,Calm,-,N/A,,Clear,0,2013-07-24 09:34:00
5:55 AM,51.8,48.2,88,29.97,10.0,North,3.5,-,N/A,,Clear,10,2013-07-24 09:55:00
6:15 AM,51.8,48.2,88,29.98,10.0,NNE,4.6,-,N/A,,Clear,20,2013-07-24 10:15:00
6:34 AM,51.8,48.2,88,29.98,10.0,North,5.8,-,N/A,,Clear,10,2013-07-24 10:34:00
6:55 AM,51.8,48.2,88,29.99,10.0,North,5.8,-,N/A,,Clear,10,2013-07-24 10:55:00
7:15 AM,51.8,48.2,88,30.00,10.0,North,4.6,-,N/A,,Clear,10,2013-07-24 11:15:00
7:34 AM,53.6,48.2,82,30.01,10.0,North,4.6,-,N/A,,Clear,10,2013-07-24 11:34:00
7:55 AM,53.6,48.2,82,30.01,10.0,NNE,5.8,-,N/A,,Clear,20,2013-07-24 11:55:00
8:14 AM,55.4,48.2,77,30.02,10.0,Calm,Calm,-,N/A,,Clear,0,2013-07-24 12:14:00
8:35 AM,55.4,48.2,77,30.02,10.0,NNE,6.9,-,N/A,,Clear,20,2013-07-24 12:35:00
8:55 AM,57.2,48.2,72,30.02,10.0,NNE,6.9,-,N/A,,Clear,20,2013-07-24 12:55:00
9:14 AM,57.2,50.0,77,30.03,10.0,NNE,6.9,-,N/A,,Clear,20,2013-07-24 13:14:00
9:35 AM,59.0,50.0,72,30.03,10.0,NNE,5.8,-,N/A,,Clear,30,2013-07-24 13:35:00
9:55 AM,60.8,50.0,68,30.03,10.0,NNE,3.5,-,N/A,,Clear,20,2013-07-24 13:55:00
10:14 AM,60.8,50.0,68,30.03,10.0,North,3.5,-,N/A,,Clear,10,2013-07-24 14:14:00
10:35 AM,62.6,51.8,68,30.04,10.0,North,6.9,-,N/A,,Clear,10,2013-07-24 14:35:00
10:55 AM,62.6,51.8,68,30.04,10.0,Calm,Calm,-,N/A,,Clear,0,2013-07-24 14:55:00
11:14 AM,62.6,50.0,63,30.04,10.0,NNE,8.1,-,N/A,,Clear,30,2013-07-24 15:14:00
11:35 AM,62.6,50.0,63,30.04,10.0,NNE,4.6,-,N/A,,Clear,30,2013-07-24 15:35:00
11:55 AM,64.4,51.8,64,30.04,10.0,Calm,Calm,-,N/A,,Clear,0,2013-07-24 15:55:00
12:14 PM,64.4,51.8,64,30.04,10.0,North,8.1,-,N/A,,Clear,10,2013-07-24 16:14:00
12:35 PM,64.4,48.2,56,30.05,10.0,NNE,9.2,-,N/A,,Clear,20,2013-07-24 16:35:00
12:55 PM,66.2,51.8,60,30.04,10.0,North,5.8,-,N/A,,Clear,10,2013-07-24 16:55:00
1:14 PM,66.2,50.0,56,30.04,10.0,North,8.1,-,N/A,,Clear,360,2013-07-24 17:14:00
1:35 PM,66.2,51.8,60,30.04,10.0,East,6.9,-,N/A,,Clear,80,2013-07-24 17:35:00
1:55 PM,68.0,51.8,56,30.03,10.0,NNE,3.5,-,N/A,,Clear,30,2013-07-24 17:55:00
2:14 PM,68.0,51.8,56,30.03,10.0,East,10.4,-,N/A,,Clear,80,2013-07-24 18:14:00
2:35 PM,68.0,51.8,56,30.03,10.0,Calm,Calm,-,N/A,,Clear,0,2013-07-24 18:35:00
2:55 PM,68.0,51.8,56,30.03,10.0,NNE,4.6,-,N/A,,Clear,30,2013-07-24 18:55:00
3:14 PM,69.8,51.8,53,30.03,10.0,ENE,8.1,-,N/A,,Clear,60,2013-07-24 19:14:00
3:35 PM,69.8,53.6,56,30.03,10.0,ENE,4.6,-,N/A,,Clear,60,2013-07-24 19:35:00
3:54 PM,69.8,51.8,53,30.03,10.0,Calm,Calm,-,N/A,,Clear,0,2013-07-24 19:54:00
4:15 PM,69.8,51.8,53,30.02,10.0,NNE,5.8,-,N/A,,Scattered Clouds,30,2013-07-24 20:15:00
4:35 PM,69.8,53.6,56,30.02,10.0,ENE,6.9,-,N/A,,Scattered Clouds,60,2013-07-24 20:35:00
4:59 PM,69.8,51.8,53,30.02,10.0,Calm,Calm,-,N/A,,Scattered Clouds,0,2013-07-24 20:59:00
5:15 PM,71.6,51.8,50,30.02,10.0,Calm,Calm,-,N/A,,Clear,0,2013-07-24 21:15:00
5:35 PM,69.8,53.6,56,30.01,10.0,ENE,5.8,-,N/A,,Mostly Cloudy,60,2013-07-24 21:35:00
5:54 PM,69.8,53.6,56,30.01,10.0,Calm,Calm,-,N/A,,Scattered Clouds,0,2013-07-24 21:54:00
6:15 PM,69.8,53.6,56,30.01,10.0,ENE,6.9,-,N/A,,Clear,70,2013-07-24 22:15:00
6:35 PM,69.8,51.8,53,30.01,10.0,Calm,Calm,-,N/A,,Scattered Clouds,0,2013-07-24 22:35:00
6:54 PM,69.8,51.8,53,30.01,10.0,ENE,3.5,-,N/A,,Mostly Cloudy,70,2013-07-24 22:54:00
7:15 PM,69.8,51.8,53,30.01,10.0,Calm,Calm,-,N/A,,Scattered Clouds,0,2013-07-24 23:15:00
7:35 PM,69.8,53.6,56,30.02,10.0,Calm,Calm,-,N/A,,Clear,0,2013-07-24 23:35:00
7:54 PM,66.2,53.6,64,30.02,10.0,Calm,Calm,-,N/A,,Scattered Clouds,0,2013-07-24 23:54:00
8:15 PM,66.2,55.4,68,30.03,10.0,Calm,Calm,-,N/A,,Scattered Clouds,0,2013-07-25 00:15:00
8:35 PM,64.4,59.0,83,30.03,10.0,Calm,Calm,-,N/A,,Clear,0,2013-07-25 00:35:00
8:54 PM,64.4,60.8,88,30.04,10.0,Calm,Calm,-,N/A,,Clear,0,2013-07-25 00:54:00
9:15 PM,62.6,59.0,88,30.04,10.0,Calm,Calm,-,N/A,,Scattered Clouds,0,2013-07-25 01:15:00
9:39 PM,60.8,57.2,88,30.04,10.0,Calm,Calm,-,N/A,,Clear,0,2013-07-25 01:39:00
9:54 PM,60.8,57.2,88,30.04,10.0,Calm,Calm,-,N/A,,Clear,0,2013-07-25 01:54:00
10:15 PM,59.0,57.2,94,30.05,10.0,Calm,Calm,-,N/A,,Clear,0,2013-07-25 02:15:00
10:34 PM,59.0,57.2,94,30.04,10.0,Calm,Calm,-,N/A,,Clear,0,2013-07-25 02:34:00
10:55 PM,57.2,55.4,94,30.05,10.0,Calm,Calm,-,N/A,,Clear,0,2013-07-25 02:55:00
11:15 PM,57.2,55.4,94,30.05,10.0,Calm,Calm,-,N/A,,Clear,0,2013-07-25 03:15:00
11:34 PM,57.2,55.4,94,30.05,10.0,Calm,Calm,-,N/A,,Clear,0,2013-07-25 03:34:00
11:55 PM,57.2,55.4,94,30.05,10.0,Calm,Calm,-,N/A,,Clear,0,2013-07-25 03:55:00